This is the latest recevied weather packets stored in our database for station/object NZ3C. If no packets are shown the sender has not sent any weather packets the latest 10 day(s).
| Time | Temp. | Humidity | Pressure | Rain* | Wind** | Luminosity | Snow |
|---|---|---|---|---|---|---|---|
| 1777648482 | 12.22° C | 67% | 1018.1 hPa | 0 mm | - | 145 W/m² | - |
| 1777648178 | 12.22° C | 67% | 1017.9 hPa | 0 mm | - | 176 W/m² | - |
| 1777647874 | 12.22° C | 70% | 1017.7 hPa | 0 mm | - | 175 W/m² | - |
| 1777647571 | 12.22° C | 70% | 1017.5 hPa | 0 mm | - | 156 W/m² | - |
| 1777647267 | 12.22° C | 70% | 1017.5 hPa | 0 mm | - | 153 W/m² | - |
| 1777646965 | 12.22° C | 67% | 1017.6 hPa | 0 mm | - | 172 W/m² | - |
| 1777646660 | 12.22° C | 69% | 1017.7 hPa | 0 mm | - | 116 W/m² | - |
| 1777646356 | 12.22° C | 68% | 1018.1 hPa | 0 mm | - | 116 W/m² | - |
| 1777646053 | 12.78° C | 68% | 1018.3 hPa | 0 mm | - | 128 W/m² | - |
| 1777645749 | 12.78° C | 59% | 1018.3 hPa | 0 mm | - | 141 W/m² | - |
| 1777645447 | 12.78° C | 60% | 1018.2 hPa | 0 mm | - | 156 W/m² | - |
| 1777645142 | 12.78° C | 61% | 1018 hPa | 0 mm | - | 158 W/m² | - |
| 1777644839 | 12.78° C | 57% | 1018.2 hPa | 0 mm | - | 124 W/m² | - |
| 1777644537 | 12.78° C | 58% | 1018.4 hPa | 0 mm | - | 102 W/m² | - |
| 1777644233 | 13.33° C | 56% | 1018.4 hPa | 0 mm | - | 119 W/m² | - |
| 1777643929 | 13.33° C | 56% | 1017.6 hPa | 0 mm | - | 155 W/m² | - |
| 1777643627 | 12.78° C | 61% | 1017.7 hPa | 0 mm | - | 323 W/m² | - |
| 1777643324 | 12.22° C | 59% | 1017.4 hPa | 0 mm | - | 259 W/m² | - |
| 1777643020 | 12.22° C | 61% | 1017.4 hPa | 0 mm | - | 152 W/m² | - |
| 1777642717 | 12.22° C | 61% | 1017.4 hPa | 0 mm | - | 149 W/m² | - |
| 1777642414 | 12.22° C | 61% | 1017.3 hPa | 0 mm | - | 80 W/m² | - |
| 1777642110 | 12.22° C | 61% | 1017.5 hPa | 0 mm | - | 74 W/m² | - |
| 1777641806 | 12.22° C | 59% | 1017.4 hPa | 0 mm | - | 65 W/m² | - |
| 1777641501 | 12.22° C | 60% | 1017.1 hPa | 0 mm | - | 98 W/m² | - |
| 1777641197 | 12.22° C | 63% | 1016.9 hPa | 0 mm | - | 94 W/m² | - |
* Rain latest hour (hover to see other rain measurements)
** Current wind speed in m/s (hover to see current wind gust speed)